When you browse on this site, cookies collect data to enhance your experience and personalize the content and advertising you see.
Visit our Privacy Policy to learn more. By continuing to use the site, you agree to this use of cookies and data.
EN

Hourly Weather Donets'k

Today, 11 July, Saturday

Time Temperature Precipitation Wind Pressure Humidity
00:00 +20°C° 0 mm 3 mps 749 mmHg 60%
01:00 +19°C° 0 mm 3 mps 749 mmHg 61%
02:00 +19°C° 0 mm 3 mps 749 mmHg 62%
03:00 +18°C° 0 mm 2 mps 749 mmHg 63%
04:00 +18°C° 0 mm 2 mps 749 mmHg 64%
05:00 +18°C° 0 mm 3 mps 750 mmHg 65%
06:00 +18°C° 0 mm 3 mps 750 mmHg 66%
07:00 +20°C° 0 mm 3 mps 750 mmHg 61%
08:00 +22°C° 0 mm 3 mps 750 mmHg 55%
09:00 +23°C° 0 mm 4 mps 750 mmHg 49%
10:00 +26°C° 0 mm 4 mps 750 mmHg 45%
11:00 +27°C° 0 mm 4 mps 750 mmHg 41%
12:00 +28°C° 0 mm 4 mps 750 mmHg 38%
13:00 +28°C° 0 mm 4 mps 749 mmHg 36%
14:00 +29°C° 0 mm 4 mps 749 mmHg 35%
15:00 +30°C° 0 mm 4 mps 748 mmHg 34%
16:00 +29°C° 0 mm 4 mps 748 mmHg 35%
17:00 +29°C° 0 mm 4 mps 748 mmHg 37%
18:00 +28°C° 0 mm 4 mps 747 mmHg 38%
19:00 +27°C° 0 mm 4 mps 747 mmHg 43%
20:00 +25°C° 0 mm 4 mps 747 mmHg 47%
21:00 +24°C° 0 mm 3 mps 747 mmHg 52%
22:00 +22°C° 0 mm 3 mps 747 mmHg 54%
23:00 +22°C° 0 mm 3 mps 747 mmHg 56%

Tomorrow, 12 July, Sunday

Time Temperature Precipitation Wind Pressure Humidity
00:00 +21°C° 0 mm 4 mps 746 mmHg 58%
01:00 +21°C° 0 mm 4 mps 746 mmHg 61%
02:00 +20°C° 0 mm 4 mps 746 mmHg 63%
03:00 +19°C° 0 mm 4 mps 746 mmHg 65%
04:00 +20°C° 0 mm 4 mps 745 mmHg 67%
05:00 +20°C° 0 mm 4 mps 745 mmHg 69%
06:00 +20°C° 0 mm 4 mps 745 mmHg 71%
07:00 +22°C° 0 mm 4 mps 745 mmHg 67%
08:00 +23°C° 0 mm 4 mps 745 mmHg 64%
09:00 +26°C° 0 mm 4 mps 745 mmHg 61%
10:00 +28°C° 0 mm 4 mps 744 mmHg 56%
11:00 +30°C° 0 mm 4 mps 744 mmHg 51%
12:00 +33°C° 0 mm 4 mps 744 mmHg 46%
13:00 +33°C° 0 mm 3 mps 743 mmHg 47%
14:00 +31°C° 0 mm 3 mps 743 mmHg 48%
15:00 +31°C° 0 mm 3 mps 743 mmHg 49%
16:00 +30°C° 0.7 mm 2 mps 742 mmHg 53%
17:00 +29°C° 0.7 mm 2 mps 742 mmHg 58%
18:00 +28°C° 0.7 mm 2 mps 741 mmHg 63%
19:00 +27°C° 1 mm 2 mps 741 mmHg 67%
20:00 +26°C° 1 mm 2 mps 741 mmHg 71%
21:00 +25°C° 1 mm 2 mps 741 mmHg 74%
22:00 +25°C° 1.9 mm 2 mps 741 mmHg 74%
23:00 +24°C° 1.9 mm 3 mps 741 mmHg 74%

Day after tomorrow, 13 July, Monday

Time Temperature Precipitation Wind Pressure Humidity
00:00 +24°C° 1.9 mm 3 mps 740 mmHg 74%
01:00 +24°C° 0.4 mm 3 mps 740 mmHg 77%
02:00 +23°C° 0.4 mm 2 mps 740 mmHg 81%
03:00 +23°C° 0.4 mm 2 mps 739 mmHg 84%
04:00 +23°C° 0.2 mm 1 mps 739 mmHg 84%
05:00 +23°C° 0.2 mm 1 mps 739 mmHg 83%
06:00 +23°C° 0.2 mm 1 mps 739 mmHg 83%
07:00 +24°C° 0 mm 1 mps 739 mmHg 77%
08:00 +25°C° 0 mm 1 mps 739 mmHg 71%
09:00 +27°C° 0 mm 1 mps 739 mmHg 65%
10:00 +28°C° 0 mm 1 mps 738 mmHg 59%
11:00 +29°C° 0 mm 1 mps 738 mmHg 54%
12:00 +31°C° 0 mm 1 mps 738 mmHg 49%
13:00 +31°C° 0 mm 1 mps 738 mmHg 46%
14:00 +32°C° 0 mm 1 mps 738 mmHg 44%
15:00 +34°C° 0 mm 2 mps 738 mmHg 41%
16:00 +31°C° 0.5 mm 2 mps 737 mmHg 48%
17:00 +29°C° 0.5 mm 3 mps 737 mmHg 54%
18:00 +28°C° 0.5 mm 4 mps 736 mmHg 61%
19:00 +26°C° 3.2 mm 3 mps 737 mmHg 66%
20:00 +25°C° 3.2 mm 2 mps 737 mmHg 71%
21:00 +24°C° 3.2 mm 1 mps 738 mmHg 75%
22:00 +23°C° 0.8 mm 1 mps 737 mmHg 76%
23:00 +23°C° 0.8 mm 1 mps 737 mmHg 77%

14 July, Tuesday

Time Temperature Precipitation Wind Pressure Humidity
00:00 +23°C° 0.8 mm 1 mps 737 mmHg 77%
01:00 +23°C° 0 mm 1 mps 737 mmHg 79%
02:00 +22°C° 0 mm 1 mps 737 mmHg 81%
03:00 +22°C° 0 mm 1 mps 737 mmHg 83%
04:00 +21°C° 0.1 mm 2 mps 737 mmHg 84%
05:00 +21°C° 0.1 mm 2 mps 737 mmHg 85%
06:00 +20°C° 0.1 mm 2 mps 737 mmHg 87%
07:00 +21°C° 0.3 mm 2 mps 737 mmHg 83%
08:00 +23°C° 0.3 mm 2 mps 738 mmHg 80%
09:00 +24°C° 0.3 mm 3 mps 738 mmHg 77%
10:00 +24°C° 1 mm 3 mps 738 mmHg 77%
11:00 +24°C° 1 mm 3 mps 738 mmHg 77%
12:00 +24°C° 1 mm 3 mps 738 mmHg 78%
13:00 +23°C° 0.5 mm 4 mps 739 mmHg 75%
14:00 +23°C° 0.5 mm 5 mps 739 mmHg 73%
15:00 +24°C° 0.5 mm 6 mps 739 mmHg 70%
16:00 +23°C° 0.1 mm 6 mps 739 mmHg 71%
17:00 +22°C° 0.1 mm 6 mps 739 mmHg 73%
18:00 +21°C° 0.1 mm 6 mps 739 mmHg 74%
19:00 +20°C° 0 mm 5 mps 740 mmHg 76%
20:00 +20°C° 0 mm 5 mps 740 mmHg 78%
21:00 +19°C° 0 mm 5 mps 740 mmHg 80%
22:00 +17°C° 0 mm 5 mps 740 mmHg 81%
23:00 +17°C° 0 mm 5 mps 740 mmHg 83%

15 July, Wednesday

Time Temperature Precipitation Wind Pressure Humidity
00:00 +17°C° 0 mm 4 mps 740 mmHg 84%
01:00 +16°C° 0 mm 5 mps 741 mmHg 85%
02:00 +16°C° 0 mm 5 mps 741 mmHg 85%
03:00 +16°C° 0 mm 5 mps 741 mmHg 86%
04:00 +16°C° 0 mm 5 mps 741 mmHg 85%
05:00 +16°C° 0 mm 5 mps 741 mmHg 84%
06:00 +16°C° 0 mm 5 mps 742 mmHg 84%
07:00 +17°C° 0 mm 5 mps 742 mmHg 80%
08:00 +19°C° 0 mm 5 mps 742 mmHg 77%
09:00 +20°C° 0 mm 5 mps 742 mmHg 74%
10:00 +21°C° 0 mm 5 mps 743 mmHg 66%
11:00 +23°C° 0 mm 6 mps 743 mmHg 58%
12:00 +24°C° 0 mm 6 mps 743 mmHg 51%
13:00 +26°C° 0 mm 6 mps 743 mmHg 48%
14:00 +26°C° 0 mm 6 mps 743 mmHg 46%
15:00 +27°C° 0 mm 6 mps 743 mmHg 44%
16:00 +26°C° 0 mm 6 mps 743 mmHg 46%
17:00 +26°C° 0 mm 5 mps 743 mmHg 48%
18:00 +25°C° 0 mm 5 mps 743 mmHg 50%
19:00 +22°C° 0 mm 4 mps 744 mmHg 55%
20:00 +21°C° 0 mm 3 mps 744 mmHg 60%
21:00 +20°C° 0 mm 3 mps 744 mmHg 64%
22:00 +19°C° 0 mm 2 mps 744 mmHg 67%
23:00 +19°C° 0 mm 1 mps 744 mmHg 70%

16 July, Thursday

Time Temperature Precipitation Wind Pressure Humidity
00:00 +18°C° 0 mm 1 mps 744 mmHg 73%
01:00 +18°C° 0 mm 1 mps 744 mmHg 75%
02:00 +16°C° 0 mm 2 mps 744 mmHg 77%
03:00 +16°C° 0 mm 2 mps 744 mmHg 79%
04:00 +16°C° 0 mm 2 mps 744 mmHg 78%
05:00 +16°C° 0 mm 2 mps 744 mmHg 77%
06:00 +16°C° 0 mm 2 mps 744 mmHg 76%
07:00 +17°C° 0 mm 2 mps 744 mmHg 70%
08:00 +19°C° 0 mm 3 mps 744 mmHg 64%
09:00 +20°C° 0 mm 3 mps 745 mmHg 58%
10:00 +21°C° 0 mm 4 mps 745 mmHg 54%
11:00 +22°C° 0 mm 4 mps 745 mmHg 49%
12:00 +23°C° 0 mm 4 mps 745 mmHg 45%
13:00 +23°C° 0 mm 4 mps 744 mmHg 45%
14:00 +23°C° 0 mm 4 mps 744 mmHg 45%
15:00 +23°C° 0 mm 4 mps 744 mmHg 45%
16:00 +23°C° 0 mm 4 mps 744 mmHg 45%
17:00 +24°C° 0 mm 3 mps 744 mmHg 45%
18:00 +24°C° 0 mm 3 mps 744 mmHg 45%
19:00 +23°C° 0 mm 2 mps 744 mmHg 50%
20:00 +21°C° 0 mm 2 mps 744 mmHg 54%
21:00 +20°C° 0 mm 2 mps 744 mmHg 58%
22:00 +20°C° 0 mm 1 mps 744 mmHg 59%
23:00 +20°C° 0 mm 1 mps 744 mmHg 60%
Show more